Terminal Aerodrome Forecast
Issued by NWS Corpus Christi, TX

Home | Current Version | Previous Version | Text Only | Print | Product List | Glossary On
Versions: 1 2 3 4 5 6 7 8 9 10 11 12 13 14 15
696
FTUS44 KCRP 201122
TAFVCT
TAF
KVCT 201122Z 2012/2112 02006KT 6SM TSRA BR BKN025CB
     FM201500 33008KT P6SM VCSH BKN035
     FM201800 23006KT P6SM SCT050
     FM210100 23005KT P6SM FEW100=

USA.gov is the U.S. government's official web portal to all federal, state and local government web resources and services.